Location: Bush Observatory
(40.2653°N, 94.3194°W)
Time: 11:41:11
(UTC-05:00)

Iridium 13 - Visible Passes

Search period start: 25 July 2017 00:00
Search period end: 04 August 2017 00:00
Orbit: 761 x 765 km, 86.4° (Epoch: 24 July)

Date Brightness Start Highest point End Pass type
(mag) Time Alt. Az. Time Alt. Az. Time Alt. Az.
25 Jul 7.4 02:25:03 18° ESE 02:26:26 20° E 02:30:09 10° NE visible
25 Jul 6.0 04:05:14 36° WSW 04:06:30 43° W 04:11:23 10° NNW visible
26 Jul 5.4 03:27:39 63° S 03:28:31 89° W 03:33:41 10° N visible
27 Jul 6.2 02:50:04 42° ESE 02:50:43 44° E 02:55:35 10° NNE visible
27 Jul 7.0 04:30:14 19° W 04:31:20 20° WNW 04:35:04 10° NNW visible
28 Jul 7.3 02:12:27 21° E 02:13:04 22° E 02:16:56 10° NNE visible
28 Jul 6.0 03:52:38 38° W 03:53:10 40° W 03:58:00 10° NNW visible
29 Jul 8.0 01:34:51 10° E 01:35:35 10° ENE 01:36:25 10° ENE visible
29 Jul 5.3 03:15:01 81° SW 03:15:11 83° W 03:20:21 10° N visible
30 Jul 6.1 02:37:24 48° E 02:37:24 48° E 02:42:17 10° NNE visible
30 Jul 7.1 04:17:34 18° W 04:18:01 19° WNW 04:21:35 10° NNW visible
31 Jul 7.2 01:59:46 24° E 01:59:46 24° E 02:03:43 10° NNE visible
31 Jul 6.2 03:39:56 37° W 03:39:56 37° W 03:44:36 10° NNW visible
01 Aug 8.0 01:22:07 11° ENE 01:22:12 11° ENE 01:23:45 10° ENE visible
01 Aug 5.5 03:02:18 70° NW 03:02:18 70° NW 03:07:00 10° N visible
02 Aug 6.2 02:24:39 48° ENE 02:24:39 48° ENE 02:28:58 10° NNE visible
02 Aug 7.2 04:04:49 17° WNW 04:04:49 17° WNW 04:08:03 10° NW visible
03 Aug 7.2 01:46:59 25° ENE 01:46:59 25° ENE 01:50:28 10° NNE visible
03 Aug 6.5 03:27:09 33° WNW 03:27:09 33° WNW 03:31:11 10° NNW visible
